{"data":{"norad_id":62585,"intl_designator":"2025-007L","name":"CENTISPACE-1 S16","alt_names":[],"object_type":"PAYLOAD","status":"ACTIVE","operator":null,"country":"PRC","launch_date":"2025-01-13","launch_site_code":"YSLA","launch_vehicle":null,"mission":null,"orbit_class":"UNKNOWN","rcs_meters":null,"size_class":null,"mass_kg":null,"dimensions":null,"purposes":[],"wikipedia_slug":null,"has_3d_model":false,"image_url":null,"decayed_at":null,"tle_current":{"epoch":"2026-09-22T18:53:52.416672Z","epoch_age_seconds":119771,"freshness":"FRESH","line1":"1 62585U 25007L   26265.78741223 -.00000055  00000+0  81046-4 0  9998","line2":"2 62585  54.9888 310.0597 0010470 280.9898  78.9880 13.80534317 88192","mean_motion":13.80534317,"eccentricity":0.001047,"inclination_deg":54.9888,"raan_deg":310.0597,"arg_perigee_deg":280.9898,"mean_anomaly_deg":78.988,"bstar":8.1046e-5,"rev_number":8819,"period_min":104.30743968243,"perigee_km":954.30707028051,"apogee_km":969.67730079503,"semimajor_km":7340.1291855378,"source":"CELESTRAK","updated_at":"2026-09-23T09:00:21.491674Z"}}}